Time,TemperatureF,DewpointF,PressureIn,WindDirection,WindDirectionDegrees,WindSpeedMPH,WindSpeedGustMPH,Humidity,HourlyPrecipIn,Conditions,Clouds,dailyrainin,SolarRadiationWatts/m^2,SoftwareType,DateUTC
2013-03-26 00:02:00,21.0,16.0,-100.00,WNW,298,13.0,17.0,80,0.00,,,0.00,0.000000,,2013-03-26 05:02:00,
2013-03-26 00:11:00,19.0,15.0,-100.00,NW,307,12.0,15.0,83,0.00,,,0.00,0.000000,,2013-03-26 05:11:00,
2013-03-26 00:42:00,19.0,15.0,-100.00,NW,307,12.0,15.0,83,0.00,,,0.00,0.000000,,2013-03-26 05:42:00,
2013-03-26 00:52:00,19.0,15.0,-100.00,NW,307,12.0,15.0,83,0.00,,,0.00,0.000000,,2013-03-26 05:52:00,
2013-03-26 01:02:00,19.0,15.0,-100.00,NW,307,12.0,15.0,83,0.00,,,0.00,0.000000,,2013-03-26 06:02:00,
2013-03-26 01:11:00,18.0,14.0,-100.00,WNW,302,13.0,16.0,83,0.00,,,0.00,0.000000,,2013-03-26 06:11:00,
2013-03-26 01:32:00,18.0,14.0,-100.00,WNW,302,13.0,16.0,83,0.00,,,0.00,0.000000,,2013-03-26 06:32:00,
2013-03-26 01:43:00,18.0,14.0,-100.00,WNW,302,13.0,16.0,83,0.00,,,0.00,0.000000,,2013-03-26 06:43:00,
2013-03-26 01:52:00,18.0,14.0,-100.00,WNW,302,13.0,16.0,83,0.00,,,0.00,0.000000,,2013-03-26 06:52:00,
2013-03-26 02:02:00,18.0,14.0,-100.00,WNW,302,13.0,16.0,83,0.00,,,0.00,0.000000,,2013-03-26 07:02:00,
2013-03-26 02:11:00,17.0,13.0,-100.00,NW,307,11.0,15.0,85,0.00,,,0.00,0.000000,,2013-03-26 07:11:00,
2013-03-26 02:43:00,17.0,13.0,-100.00,NW,307,11.0,15.0,85,0.00,,,0.00,0.000000,,2013-03-26 07:43:00,
2013-03-26 02:53:00,17.0,13.0,-100.00,NW,307,11.0,15.0,85,0.00,,,0.00,0.000000,,2013-03-26 07:53:00,
2013-03-26 03:02:00,17.0,13.0,-100.00,NW,307,11.0,15.0,85,0.00,,,0.00,0.000000,,2013-03-26 08:02:00,
2013-03-26 03:11:00,15.0,11.0,-100.00,NW,311,11.0,14.0,84,0.00,,,0.00,0.000000,,2013-03-26 08:11:00,
2013-03-26 03:32:00,15.0,11.0,-100.00,NW,311,11.0,14.0,84,0.00,,,0.00,0.000000,,2013-03-26 08:32:00,
2013-03-26 03:42:00,15.0,11.0,-100.00,NW,311,11.0,14.0,84,0.00,,,0.00,0.000000,,2013-03-26 08:42:00,
2013-03-26 03:52:00,15.0,11.0,-100.00,NW,311,11.0,14.0,84,0.00,,,0.00,0.000000,,2013-03-26 08:52:00,
2013-03-26 04:02:00,15.0,11.0,-100.00,NW,311,11.0,14.0,84,0.00,,,0.00,0.000000,,2013-03-26 09:02:00,
2013-03-26 04:11:00,13.0,9.0,-100.00,NW,309,8.0,12.0,85,0.00,,,0.00,0.000000,,2013-03-26 09:11:00,
2013-03-26 04:33:00,13.0,9.0,-100.00,NW,309,8.0,12.0,85,0.00,,,0.00,0.000000,,2013-03-26 09:33:00,
2013-03-26 04:43:00,13.0,9.0,-100.00,NW,309,8.0,12.0,85,0.00,,,0.00,0.000000,,2013-03-26 09:43:00,
2013-03-26 04:52:00,13.0,9.0,-100.00,NW,309,8.0,12.0,85,0.00,,,0.00,0.000000,,2013-03-26 09:52:00,
2013-03-26 05:02:00,13.0,9.0,-100.00,NW,309,8.0,12.0,85,0.00,,,0.00,0.000000,,2013-03-26 10:02:00,
2013-03-26 05:11:00,12.0,8.0,-100.00,WNW,303,8.0,11.0,85,0.00,,,0.00,0.000000,,2013-03-26 10:11:00,
2013-03-26 05:33:00,12.0,8.0,-100.00,WNW,303,8.0,11.0,85,0.00,,,0.00,0.000000,,2013-03-26 10:33:00,
2013-03-26 05:43:00,12.0,8.0,-100.00,WNW,303,8.0,11.0,85,0.00,,,0.00,0.000000,,2013-03-26 10:43:00,
2013-03-26 05:53:00,12.0,8.0,-100.00,WNW,303,8.0,11.0,85,0.00,,,0.00,0.000000,,2013-03-26 10:53:00,
2013-03-26 06:03:00,12.0,8.0,-100.00,WNW,303,8.0,11.0,85,0.00,,,0.00,0.000000,,2013-03-26 11:03:00,
2013-03-26 06:11:00,11.0,8.0,-100.00,NW,311,8.0,10.0,86,0.00,,,0.00,0.000000,,2013-03-26 11:11:00,
2013-03-26 06:33:00,11.0,8.0,-100.00,NW,311,8.0,10.0,86,0.00,,,0.00,0.000000,,2013-03-26 11:33:00,
2013-03-26 06:43:00,11.0,8.0,-100.00,NW,311,8.0,10.0,86,0.00,,,0.00,0.000000,,2013-03-26 11:43:00,
2013-03-26 06:52:00,11.0,8.0,-100.00,NW,311,8.0,10.0,86,0.00,,,0.00,0.000000,,2013-03-26 11:52:00,
2013-03-26 07:03:00,11.0,8.0,-100.00,NW,311,8.0,10.0,86,0.00,,,0.00,0.000000,,2013-03-26 12:03:00,
2013-03-26 07:11:00,9.0,5.0,-100.00,NW,312,8.0,10.0,85,0.00,,,0.00,1.000000,,2013-03-26 12:11:00,
2013-03-26 07:32:00,9.0,5.0,-100.00,NW,312,8.0,10.0,85,0.00,,,0.00,1.000000,,2013-03-26 12:32:00,
2013-03-26 07:43:00,9.0,5.0,-100.00,NW,312,8.0,10.0,85,0.00,,,0.00,1.000000,,2013-03-26 12:43:00,
2013-03-26 07:52:00,9.0,5.0,-100.00,NW,312,8.0,10.0,85,0.00,,,0.00,1.000000,,2013-03-26 12:52:00,
2013-03-26 08:03:00,9.0,5.0,-100.00,NW,312,8.0,10.0,85,0.00,,,0.00,1.000000,,2013-03-26 13:03:00,
2013-03-26 08:11:00,13.0,8.0,-100.00,WNW,286,8.0,9.0,79,0.00,,,0.00,95.000000,,2013-03-26 13:11:00,
2013-03-26 08:32:00,13.0,8.0,-100.00,WNW,286,8.0,9.0,79,0.00,,,0.00,95.000000,,2013-03-26 13:32:00,
2013-03-26 08:42:00,13.0,8.0,-100.00,WNW,286,8.0,9.0,79,0.00,,,0.00,95.000000,,2013-03-26 13:42:00,
2013-03-26 08:52:00,13.0,8.0,-100.00,WNW,286,8.0,9.0,79,0.00,,,0.00,95.000000,,2013-03-26 13:52:00,
2013-03-26 09:02:00,13.0,8.0,-100.00,WNW,286,8.0,9.0,79,0.00,,,0.00,95.000000,,2013-03-26 14:02:00,
2013-03-26 09:11:00,18.0,11.0,-100.00,NW,305,9.0,11.0,73,0.00,,,0.00,311.000000,,2013-03-26 14:11:00,
2013-03-26 09:33:00,18.0,11.0,-100.00,NW,305,9.0,11.0,73,0.00,,,0.00,311.000000,,2013-03-26 14:33:00,
2013-03-26 09:42:00,18.0,11.0,-100.00,NW,305,9.0,11.0,73,0.00,,,0.00,311.000000,,2013-03-26 14:42:00,
2013-03-26 09:53:00,18.0,11.0,-100.00,NW,305,9.0,11.0,73,0.00,,,0.00,311.000000,,2013-03-26 14:53:00,
2013-03-26 10:02:00,18.0,11.0,-100.00,NW,305,9.0,11.0,73,0.00,,,0.00,311.000000,,2013-03-26 15:02:00,
2013-03-26 10:11:00,21.0,13.0,-100.00,NW,308,8.0,11.0,70,0.00,,,0.00,518.000000,,2013-03-26 15:11:00,
2013-03-26 10:43:00,21.0,13.0,-100.00,NW,308,8.0,11.0,70,0.00,,,0.00,518.000000,,2013-03-26 15:43:00,
2013-03-26 10:53:00,21.0,13.0,-100.00,NW,308,8.0,11.0,70,0.00,,,0.00,518.000000,,2013-03-26 15:53:00,
2013-03-26 11:03:00,21.0,13.0,-100.00,NW,308,8.0,11.0,70,0.00,,,0.00,518.000000,,2013-03-26 16:03:00,
2013-03-26 11:11:00,24.0,15.0,-100.00,NW,319,7.0,10.0,67,0.00,,,0.00,690.000000,,2013-03-26 16:11:00,
2013-03-26 11:33:00,24.0,15.0,-100.00,NW,319,7.0,10.0,67,0.00,,,0.00,690.000000,,2013-03-26 16:33:00,
2013-03-26 11:42:00,24.0,15.0,-100.00,NW,319,7.0,10.0,67,0.00,,,0.00,690.000000,,2013-03-26 16:42:00,
2013-03-26 11:53:00,24.0,15.0,-100.00,NW,319,7.0,10.0,67,0.00,,,0.00,690.000000,,2013-03-26 16:53:00,
2013-03-26 12:02:00,24.0,15.0,-100.00,NW,319,7.0,10.0,67,0.00,,,0.00,690.000000,,2013-03-26 17:02:00,
2013-03-26 12:11:00,29.0,17.0,-100.00,WNW,284,6.0,9.0,60,0.00,,,0.00,812.000000,,2013-03-26 17:11:00,
2013-03-26 12:42:00,29.0,17.0,-100.00,WNW,284,6.0,9.0,60,0.00,,,0.00,812.000000,,2013-03-26 17:42:00,
2013-03-26 12:53:00,29.0,17.0,-100.00,WNW,284,6.0,9.0,60,0.00,,,0.00,812.000000,,2013-03-26 17:53:00,
2013-03-26 13:02:00,29.0,17.0,-100.00,WNW,284,6.0,9.0,60,0.00,,,0.00,812.000000,,2013-03-26 18:02:00,
2013-03-26 14:11:00,34.0,20.0,-100.00,West,269,6.0,8.0,57,-99.99,,,0.00,877.000000,,2013-03-26 19:11:00,
2013-03-26 14:42:00,34.0,20.0,-100.00,West,269,6.0,8.0,57,-99.99,,,0.00,877.000000,,2013-03-26 19:42:00,
2013-03-26 14:53:00,34.0,20.0,-100.00,West,269,6.0,8.0,57,-99.99,,,0.00,877.000000,,2013-03-26 19:53:00,
2013-03-26 15:02:00,34.0,20.0,-100.00,West,269,6.0,8.0,57,-99.99,,,0.00,877.000000,,2013-03-26 20:02:00,
2013-03-26 15:11:00,35.0,20.0,-100.00,West,280,6.0,8.0,54,0.00,,,0.00,814.000000,,2013-03-26 20:11:00,
2013-03-26 15:32:00,35.0,20.0,-100.00,West,280,6.0,8.0,54,0.00,,,0.00,814.000000,,2013-03-26 20:32:00,
2013-03-26 15:43:00,35.0,20.0,-100.00,West,280,6.0,8.0,54,0.00,,,0.00,814.000000,,2013-03-26 20:43:00,
2013-03-26 15:52:00,35.0,20.0,-100.00,West,280,6.0,8.0,54,0.00,,,0.00,814.000000,,2013-03-26 20:52:00,
2013-03-26 16:02:00,35.0,20.0,-100.00,West,280,6.0,8.0,54,0.00,,,0.00,814.000000,,2013-03-26 21:02:00,
2013-03-26 16:11:00,34.0,22.0,-100.00,NW,321,6.0,9.0,60,0.00,,,0.00,691.000000,,2013-03-26 21:11:00,
2013-03-26 16:43:00,34.0,22.0,-100.00,NW,321,6.0,9.0,60,0.00,,,0.00,691.000000,,2013-03-26 21:43:00,
2013-03-26 16:52:00,34.0,22.0,-100.00,NW,321,6.0,9.0,60,0.00,,,0.00,691.000000,,2013-03-26 21:52:00,
2013-03-26 17:02:00,34.0,22.0,-100.00,NW,321,6.0,9.0,60,0.00,,,0.00,691.000000,,2013-03-26 22:02:00,
2013-03-26 17:42:00,34.0,21.0,-100.00,NW,319,5.0,7.0,59,0.00,,,0.00,518.000000,,2013-03-26 22:42:00,
2013-03-26 17:52:00,34.0,21.0,-100.00,NW,319,5.0,7.0,59,0.00,,,0.00,518.000000,,2013-03-26 22:52:00,
2013-03-26 18:01:00,34.0,21.0,-100.00,NW,319,5.0,7.0,59,0.00,,,0.00,518.000000,,2013-03-26 23:01:00,
2013-03-26 18:10:00,34.0,21.0,-100.00,NW,319,5.0,7.0,59,0.00,,,0.00,518.000000,,2013-03-26 23:10:00,
2013-03-26 18:11:00,34.0,21.0,-100.00,NW,318,4.0,5.0,58,0.00,,,0.00,318.000000,,2013-03-26 23:11:00,
2013-03-26 18:32:00,34.0,21.0,-100.00,NW,318,4.0,5.0,58,0.00,,,0.00,318.000000,,2013-03-26 23:32:00,
2013-03-26 18:43:00,34.0,21.0,-100.00,NW,318,4.0,5.0,58,0.00,,,0.00,318.000000,,2013-03-26 23:43:00,
2013-03-26 18:53:00,34.0,21.0,-100.00,NW,318,4.0,5.0,58,0.00,,,0.00,318.000000,,2013-03-26 23:53:00,
2013-03-26 19:02:00,34.0,21.0,-100.00,NW,318,4.0,5.0,58,0.00,,,0.00,318.000000,,2013-03-27 00:02:00,
2013-03-26 20:11:00,26.0,19.0,-100.00,WSW,240,3.0,4.0,74,-99.99,,,0.00,8.000000,,2013-03-27 01:11:00,
2013-03-26 20:33:00,26.0,19.0,-100.00,WSW,240,3.0,4.0,74,-99.99,,,0.00,8.000000,,2013-03-27 01:33:00,
2013-03-26 20:43:00,26.0,19.0,-100.00,WSW,240,3.0,4.0,74,-99.99,,,0.00,8.000000,,2013-03-27 01:43:00,
2013-03-26 20:53:00,26.0,19.0,-100.00,WSW,240,3.0,4.0,74,-99.99,,,0.00,8.000000,,2013-03-27 01:53:00,
2013-03-26 21:03:00,26.0,19.0,-100.00,WSW,240,3.0,4.0,74,-99.99,,,0.00,8.000000,,2013-03-27 02:03:00,
2013-03-26 21:11:00,24.0,20.0,-100.00,WSW,237,4.0,5.0,86,0.00,,,0.00,0.000000,,2013-03-27 02:11:00,
2013-03-26 21:42:00,24.0,20.0,-100.00,WSW,237,4.0,5.0,86,0.00,,,0.00,0.000000,,2013-03-27 02:42:00,
2013-03-26 21:53:00,24.0,20.0,-100.00,WSW,237,4.0,5.0,86,0.00,,,0.00,0.000000,,2013-03-27 02:53:00,
2013-03-26 22:02:00,24.0,20.0,-100.00,WSW,237,4.0,5.0,86,0.00,,,0.00,0.000000,,2013-03-27 03:02:00,
2013-03-26 22:11:00,19.0,17.0,-100.00,West,261,3.0,6.0,92,0.00,,,0.00,0.000000,,2013-03-27 03:11:00,
2013-03-26 22:43:00,19.0,17.0,-100.00,West,261,3.0,6.0,92,0.00,,,0.00,0.000000,,2013-03-27 03:43:00,
2013-03-26 22:53:00,19.0,17.0,-100.00,West,261,3.0,6.0,92,0.00,,,0.00,0.000000,,2013-03-27 03:53:00,
2013-03-26 23:02:00,19.0,17.0,-100.00,West,261,3.0,6.0,92,0.00,,,0.00,0.000000,,2013-03-27 04:02:00,
2013-03-26 23:11:00,18.0,17.0,-100.00,SW,236,4.0,5.0,95,0.00,,,0.00,0.000000,,2013-03-27 04:11:00,
2013-03-26 23:33:00,18.0,17.0,-100.00,SW,236,4.0,5.0,95,0.00,,,0.00,0.000000,,2013-03-27 04:33:00,
2013-03-26 23:43:00,18.0,17.0,-100.00,SW,236,4.0,5.0,95,0.00,,,0.00,0.000000,,2013-03-27 04:43:00,
2013-03-26 23:52:00,18.0,17.0,-100.00,SW,236,4.0,5.0,95,0.00,,,0.00,0.000000,,2013-03-27 04:52:00,